WXM80 ListenWXM80 Stop

You find our weather info also at:

UK Metoffice

WeatherCloud

Weather Underground

Northeastern Weather Network

AWEKAS

Citizen Weather Observer Program (CWOP)

HAMweather, WeatherForYou, PWS Weather


Weather Underground History page Text

Daily Summary for July 6, 2017 Units:  Metric    English   Both
« Previous Day
Next Day »
Daily Weekly Monthly Yearly Custom
  High: Low: Average:
Temperature: 26.4 °C 18.4 °C 21.8 °C
Dew Point: 20.7 °C 12.9 °C 17 °C
Humidity: 94 % 47 % 76 %
Wind Speed: 5.5 km/h 0 km/h 0.5 km/h
Wind Gust: 11.3 km/h - -
Wind:- - SE
Pressure: 1020.9 hPa 1013.8 hPa -
Precipitation: 0 mm    
Historical Graphs
 
 
Tabular Data for July 6, 2017
Time Temperature Dew Point Pressure Wind Wind Speed Wind Gust Humidity Rainfall Rate (Hourly)
00:02 19.4 °C 16.5 °C 1020.9 hPa Calm     83 % 0 mm
00:07 19.3 °C 16.4 °C 1020.9 hPa Calm     83 % 0 mm
00:12 19.3 °C 16.3 °C 1020.9 hPa Calm     83 % 0 mm
00:17 19.2 °C 16.3 °C 1020.9 hPa Calm     83 % 0 mm
00:22 19.2 °C 16.2 °C 1020.9 hPa Calm     83 % 0 mm
00:27 19.1 °C 16.3 °C 1020.5 hPa Calm     84 % 0 mm
00:37 19.1 °C 16.7 °C 1020.9 hPa Calm   1.9 km/h 86 % 0 mm
00:42 19.1 °C 16.9 °C 1020.5 hPa Calm     87 % 0 mm
00:47 19.1 °C 17.1 °C 1020.5 hPa Calm     88 % 0 mm
00:52 19.1 °C 17.1 °C 1020.5 hPa Calm     88 % 0 mm
00:57 19.1 °C 17.1 °C 1020.5 hPa Calm   1.9 km/h 88 % 0 mm
01:02 19.1 °C 17.1 °C 1020.5 hPa Calm     88 % 0 mm
01:07 19.1 °C 17.1 °C 1020.2 hPa Calm     88 % 0 mm
01:12 19.1 °C 17.1 °C 1020.2 hPa Calm     88 % 0 mm
01:17 19.1 °C 17.1 °C 1020.2 hPa Calm     88 % 0 mm
01:22 19.1 °C 17.1 °C 1020.2 hPa Calm     88 % 0 mm
01:27 19.1 °C 17.1 °C 1020.2 hPa Calm     88 % 0 mm
01:32 19.1 °C 17 °C 1019.9 hPa Calm     88 % 0 mm
01:37 19.1 °C 17 °C 1019.9 hPa Calm     88 % 0 mm
01:42 19 °C 16.9 °C 1019.9 hPa Calm     88 % 0 mm
01:47 19 °C 16.9 °C 1019.9 hPa Calm     88 % 0 mm
01:52 18.9 °C 16.7 °C 1019.9 hPa Calm     87 % 0 mm
01:57 18.9 °C 16.9 °C 1019.9 hPa Calm     88 % 0 mm
02:03 18.9 °C 16.8 °C 1019.9 hPa Calm     88 % 0 mm
02:08 18.8 °C 16.8 °C 1020.2 hPa Calm     88 % 0 mm
02:13 18.8 °C 16.8 °C 1019.9 hPa Calm     88 % 0 mm
02:18 18.8 °C 16.7 °C 1019.9 hPa Calm     88 % 0 mm
02:23 18.8 °C 16.7 °C 1019.9 hPa Calm     88 % 0 mm
02:28 18.7 °C 16.9 °C 1019.9 hPa Calm     89 % 0 mm
02:33 18.7 °C 16.9 °C 1019.9 hPa Calm     89 % 0 mm
02:39 18.7 °C 16.9 °C 1019.9 hPa Calm     89 % 0 mm
02:44 18.7 °C 16.8 °C 1019.9 hPa Calm     89 % 0 mm
02:49 18.7 °C 16.8 °C 1019.9 hPa Calm     89 % 0 mm
02:54 18.6 °C 16.8 °C 1020.2 hPa Calm     89 % 0 mm
02:59 18.6 °C 16.7 °C 1019.9 hPa Calm     89 % 0 mm
03:04 18.6 °C 16.7 °C 1019.9 hPa Calm     89 % 0 mm
03:09 18.6 °C 16.7 °C 1019.9 hPa Calm     89 % 0 mm
03:14 18.6 °C 16.9 °C 1019.9 hPa Calm     90 % 0 mm
03:19 18.5 °C 16.8 °C 1019.9 hPa Calm     90 % 0 mm
03:24 18.5 °C 16.7 °C 1019.9 hPa Calm     89 % 0 mm
03:29 18.5 °C 16.7 °C 1019.9 hPa Calm     89 % 0 mm
03:34 18.4 °C 16.6 °C 1019.9 hPa Calm     89 % 0 mm
03:39 18.4 °C 16.6 °C 1019.5 hPa Calm     89 % 0 mm
03:44 18.4 °C 16.6 °C 1019.5 hPa Calm     89 % 0 mm
03:49 18.4 °C 16.6 °C 1019.5 hPa Calm     89 % 0 mm
03:54 18.4 °C 16.6 °C 1019.5 hPa Calm     89 % 0 mm
03:59 18.4 °C 16.8 °C 1019.5 hPa Calm     90 % 0 mm
04:04 18.4 °C 16.8 °C 1019.5 hPa Calm     90 % 0 mm
04:09 18.4 °C 16.8 °C 1019.5 hPa Calm     90 % 0 mm
04:14 18.4 °C 16.8 °C 1019.5 hPa Calm     90 % 0 mm
04:19 18.4 °C 16.8 °C 1019.5 hPa Calm     90 % 0 mm
04:24 18.4 °C 16.8 °C 1019.2 hPa Calm     90 % 0 mm
04:29 18.4 °C 16.9 °C 1019.2 hPa Calm     91 % 0 mm
04:32 18.4 °C 16.9 °C 1019.5 hPa Calm     91 % 0 mm
04:37 18.4 °C 16.9 °C 1019.5 hPa Calm     91 % 0 mm
04:42 18.4 °C 16.9 °C 1019.5 hPa Calm     91 % 0 mm
04:47 18.4 °C 17.1 °C 1019.5 hPa Calm     92 % 0 mm
04:59 18.4 °C 17.1 °C 1019.5 hPa Calm     92 % 0 mm
05:03 18.4 °C 17.1 °C 1019.5 hPa Calm     92 % 0 mm
05:08 18.5 °C 17.2 °C 1019.5 hPa Calm     92 % 0 mm
05:10 18.4 °C 17.1 °C 1019.5 hPa Calm     92 % 0 mm
05:15 18.5 °C 17.2 °C 1019.5 hPa Calm     92 % 0 mm
05:20 18.5 °C 17.2 °C 1019.5 hPa Calm     92 % 0 mm
05:21 18.5 °C 17.2 °C 1019.2 hPa Calm     92 % 0 mm
05:22 18.5 °C 17.2 °C 1019.5 hPa Calm     92 % 0 mm
05:23 18.5 °C 17.2 °C 1019.2 hPa Calm     92 % 0 mm
05:24 18.5 °C 17.2 °C 1019.5 hPa Calm     92 % 0 mm
05:25 18.5 °C 17.2 °C 1019.2 hPa Calm     92 % 0 mm
05:26 18.5 °C 17.2 °C 1019.5 hPa Calm     92 % 0 mm
05:27 18.5 °C 17.2 °C 1019.5 hPa Calm     92 % 0 mm
05:28 18.5 °C 17.2 °C 1019.5 hPa Calm     92 % 0 mm
05:30 18.6 °C 17.2 °C 1019.5 hPa Calm     92 % 0 mm
05:33 18.6 °C 17.2 °C 1019.2 hPa Calm     92 % 0 mm
05:38 18.6 °C 17.2 °C 1019.5 hPa Calm     92 % 0 mm
05:43 18.6 °C 17.4 °C 1019.5 hPa Calm     93 % 0 mm
05:48 18.7 °C 17.5 °C 1019.2 hPa Calm   1.9 km/h 93 % 0 mm
05:53 18.7 °C 17.5 °C 1019.5 hPa Calm     93 % 0 mm
05:58 18.7 °C 17.6 °C 1019.2 hPa Calm     93 % 0 mm
06:03 18.7 °C 17.6 °C 1019.2 hPa Calm     93 % 0 mm
06:08 18.8 °C 17.6 °C 1019.2 hPa SE 0.2 km/h 1.9 km/h 93 % 0 mm
06:13 18.8 °C 17.6 °C 1019.5 hPa Calm     93 % 0 mm
06:18 18.8 °C 17.7 °C 1019.5 hPa Calm     93 % 0 mm
06:23 18.9 °C 17.7 °C 1019.5 hPa Calm     93 % 0 mm
06:28 18.9 °C 17.7 °C 1019.5 hPa Calm     93 % 0 mm
06:33 18.9 °C 17.8 °C 1019.5 hPa Calm     93 % 0 mm
06:38 19 °C 17.8 °C 1019.5 hPa Calm     93 % 0 mm
06:44 19.1 °C 17.9 °C 1019.5 hPa Calm     93 % 0 mm
06:49 19.1 °C 17.9 °C 1019.5 hPa Calm     93 % 0 mm
06:54 19.2 °C 18.1 °C 1019.5 hPa Calm     93 % 0 mm
06:58 19.3 °C 18.3 °C 1019.5 hPa Calm     94 % 0 mm
07:04 19.3 °C 18.3 °C 1019.5 hPa Calm     94 % 0 mm
07:08 19.4 °C 18.2 °C 1019.5 hPa Calm     93 % 0 mm
07:13 19.5 °C 18.3 °C 1019.5 hPa Calm     93 % 0 mm
07:18 19.6 °C 18.6 °C 1019.5 hPa Calm     94 % 0 mm
07:24 19.7 °C 18.6 °C 1019.2 hPa Calm     93 % 0 mm
07:29 19.8 °C 18.7 °C 1019.2 hPa Calm     93 % 0 mm
07:34 19.9 °C 18.7 °C 1019.2 hPa Calm     93 % 0 mm
07:39 20 °C 18.8 °C 1019.2 hPa Calm     93 % 0 mm
07:44 20.1 °C 18.9 °C 1019.2 hPa Calm     93 % 0 mm
07:49 20.1 °C 18.8 °C 1019.2 hPa Calm     92 % 0 mm
07:52 20.2 °C 18.8 °C 1019.5 hPa Calm     92 % 0 mm
07:57 20.2 °C 18.9 °C 1019.5 hPa Calm   1.9 km/h 92 % 0 mm
08:02 20.3 °C 19 °C 1019.5 hPa Calm     92 % 0 mm
08:07 20.4 °C 19.1 °C 1019.5 hPa Calm     92 % 0 mm
08:12 20.5 °C 19.2 °C 1019.5 hPa Calm     92 % 0 mm
08:17 20.6 °C 19.1 °C 1019.5 hPa ENE 0.2 km/h 1.9 km/h 91 % 0 mm
08:22 20.6 °C 19.1 °C 1019.5 hPa Calm   1.9 km/h 91 % 0 mm
08:27 20.7 °C 19.2 °C 1019.5 hPa Calm   1.9 km/h 91 % 0 mm
08:32 20.7 °C 19 °C 1019.9 hPa Calm     90 % 0 mm
08:37 20.8 °C 19.1 °C 1019.5 hPa Calm     90 % 0 mm
08:42 20.8 °C 19.1 °C 1019.5 hPa Calm     90 % 0 mm
08:47 20.8 °C 19.1 °C 1019.5 hPa Calm     90 % 0 mm
08:52 20.9 °C 19.2 °C 1019.5 hPa Calm     90 % 0 mm
08:57 21 °C 19.5 °C 1019.5 hPa Calm     91 % 0 mm
09:02 21.1 °C 19.6 °C 1019.5 hPa Calm     91 % 0 mm
09:07 21.2 °C 19.7 °C 1019.5 hPa Calm     91 % 0 mm
09:12 21.3 °C 19.7 °C 1019.5 hPa Calm     91 % 0 mm
09:17 21.3 °C 19.6 °C 1019.5 hPa Calm     90 % 0 mm
09:23 21.4 °C 19.9 °C 1019.5 hPa Calm     91 % 0 mm
09:37 21.8 °C 20.1 °C 1019.5 hPa NNW 0.6 km/h 3.7 km/h 90 % 0 mm
09:42 21.9 °C 19.9 °C 1019.5 hPa NNW 0.2 km/h 1.9 km/h 88 % 0 mm
09:48 22.2 °C 20.1 °C 1019.5 hPa Calm   3.7 km/h 88 % 0 mm
10:00 22.4 °C 20 °C 1019.5 hPa NE 2.1 km/h 6.4 km/h 86 % 0 mm
10:05 22.6 °C 20.1 °C 1019.5 hPa Calm   3.7 km/h 86 % 0 mm
10:11 22.7 °C 20.2 °C 1019.5 hPa Calm   1.6 km/h 86 % 0 mm
10:16 22.7 °C 20.1 °C 1019.9 hPa Calm   3.2 km/h 85 % 0 mm
10:21 22.8 °C 20.2 °C 1019.9 hPa Calm   3.2 km/h 85 % 0 mm
10:26 22.9 °C 20.2 °C 1019.9 hPa Calm   4.8 km/h 85 % 0 mm
10:31 23 °C 20.3 °C 1019.9 hPa Calm   5.6 km/h 85 % 0 mm
10:36 23.1 °C 20.2 °C 1019.9 hPa NE 0.6 km/h 5.6 km/h 84 % 0 mm
10:41 23.1 °C 20.2 °C 1019.9 hPa NNE 0.2 km/h 1.9 km/h 84 % 0 mm
10:46 23.1 °C 20.3 °C 1019.9 hPa NE 0.2 km/h 3.7 km/h 84 % 0 mm
10:51 23.2 °C 20.3 °C 1019.5 hPa Calm     84 % 0 mm
10:56 23.2 °C 20.4 °C 1019.5 hPa Calm     84 % 0 mm
11:16 23.5 °C 20.4 °C 1019.9 hPa NE 2.6 km/h 6.4 km/h 83 % 0 mm
11:21 23.6 °C 20.3 °C 1019.5 hPa ENE 2.6 km/h 5.6 km/h 82 % 0 mm
11:26 23.6 °C 20.3 °C 1019.5 hPa Calm   1.9 km/h 82 % 0 mm
11:31 23.7 °C 20.4 °C 1019.5 hPa NE 0.6 km/h 3.7 km/h 82 % 0 mm
11:36 23.8 °C 20.5 °C 1019.5 hPa NE 0.3 km/h 1.9 km/h 82 % 0 mm
11:41 23.9 °C 20.4 °C 1019.2 hPa NE 0.3 km/h 1.9 km/h 81 % 0 mm
11:46 23.9 °C 20.5 °C 1019.2 hPa Calm     81 % 0 mm
11:51 24.1 °C 20.6 °C 1019.2 hPa NE 0.2 km/h 1.9 km/h 81 % 0 mm
11:56 24.2 °C 20.7 °C 1019.2 hPa NNW 0.8 km/h 1.9 km/h 81 % 0 mm
12:01 24.2 °C 20.6 °C 1018.8 hPa Calm   1.9 km/h 80 % 0 mm
12:06 24.3 °C 20.6 °C 1018.8 hPa NNE 1.3 km/h 3.7 km/h 80 % 0 mm
12:11 24.3 °C 20.4 °C 1018.8 hPa NNE 0.3 km/h 1.9 km/h 79 % 0 mm
12:16 24.3 °C 20.4 °C 1018.8 hPa NNE 0.6 km/h 1.9 km/h 79 % 0 mm
12:21 24.4 °C 20.1 °C 1018.8 hPa NE 1.1 km/h 3.7 km/h 77 % 0 mm
12:26 24.3 °C 18.7 °C 1018.8 hPa SE 2.6 km/h 6.4 km/h 71 % 0 mm
12:31 24.3 °C 18.7 °C 1018.8 hPa Calm   3.7 km/h 71 % 0 mm
12:36 24.4 °C 17.9 °C 1018.8 hPa SE 2.3 km/h 5.6 km/h 67 % 0 mm
12:41 24.4 °C 17.9 °C 1018.8 hPa SSE 2.4 km/h 3.7 km/h 67 % 0 mm
12:46 24.4 °C 17.4 °C 1018.8 hPa SSE 1.4 km/h 5.6 km/h 65 % 0 mm
12:51 24.4 °C 16.9 °C 1018.5 hPa Calm   3.7 km/h 63 % 0 mm
12:56 24.4 °C 16.6 °C 1018.5 hPa SE 0.2 km/h 5.6 km/h 62 % 0 mm
13:01 24.4 °C 17.6 °C 1018.5 hPa SE 0.5 km/h 3.7 km/h 66 % 0 mm
13:06 24.4 °C 17.4 °C 1018.5 hPa SE 1.8 km/h 5.6 km/h 65 % 0 mm
13:11 24.4 °C 17.9 °C 1018.5 hPa Calm     67 % 0 mm
13:16 24.4 °C 17.9 °C 1018.5 hPa SE 2.1 km/h 4.8 km/h 67 % 0 mm
13:21 24.3 °C 17.3 °C 1018.5 hPa SE 1.1 km/h 1.9 km/h 65 % 0 mm
13:26 24.3 °C 18.5 °C 1018.5 hPa SE 1.6 km/h 5.6 km/h 70 % 0 mm
13:32 24.3 °C 18.5 °C 1018.5 hPa Calm   1.9 km/h 70 % 0 mm
13:37 24.3 °C 18.3 °C 1018.5 hPa Calm   1.6 km/h 69 % 0 mm
13:42 24.3 °C 18.5 °C 1018.5 hPa Calm   1.9 km/h 70 % 0 mm
13:47 24.3 °C 18.3 °C 1018.5 hPa SE 0.5 km/h 3.7 km/h 69 % 0 mm
13:52 24.3 °C 18.5 °C 1018.5 hPa SSE 2.3 km/h 5.6 km/h 70 % 0 mm
13:57 24.3 °C 18.1 °C 1018.2 hPa ESE 3.4 km/h 5.6 km/h 68 % 0 mm
14:02 24.3 °C 17.3 °C 1018.2 hPa SE 1.6 km/h 3.2 km/h 65 % 0 mm
14:07 24.3 °C 17.5 °C 1018.2 hPa SSE 1.8 km/h 6.4 km/h 66 % 0 mm
14:11 24.3 °C 18.1 °C 1018.2 hPa SSE 1.6 km/h 8 km/h 68 % 0 mm
14:16 24.3 °C 17.3 °C 1018.2 hPa SE 4.8 km/h 11.3 km/h 65 % 0 mm
14:21 24.4 °C 17.1 °C 1018.2 hPa SE 1.6 km/h 6.4 km/h 64 % 0 mm
14:26 24.4 °C 16.9 °C 1018.2 hPa SE 1.6 km/h 6.4 km/h 63 % 0 mm
14:31 24.5 °C 17 °C 1018.2 hPa SSE 4.5 km/h 9.3 km/h 63 % 0 mm
14:36 24.5 °C 16.7 °C 1017.8 hPa SE 1.6 km/h 9.7 km/h 62 % 0 mm
14:41 24.6 °C 17.6 °C 1018.2 hPa Calm   4.8 km/h 65 % 0 mm
14:45 24.6 °C 16.8 °C 1017.8 hPa Calm   7.4 km/h 62 % 0 mm
14:51 24.6 °C 16.6 °C 1017.8 hPa SE 1.6 km/h 8 km/h 61 % 0 mm
14:53 24.6 °C 16.6 °C 1017.8 hPa SE 2.3 km/h 5.6 km/h 61 % 0 mm
15:00 24.6 °C 16.6 °C 1017.8 hPa SSE 5.5 km/h 8 km/h 61 % 0 mm
15:05 24.7 °C 17.4 °C 1017.8 hPa SE 0.3 km/h 1.6 km/h 64 % 0 mm
15:10 24.8 °C 17.8 °C 1017.5 hPa SE 4.7 km/h 7.4 km/h 65 % 0 mm
15:15 24.9 °C 16.1 °C 1017.5 hPa SSE 2.9 km/h 5.6 km/h 58 % 0 mm
15:25 25.1 °C 16.3 °C 1017.2 hPa SSE 3.5 km/h 9.7 km/h 58 % 0 mm
15:30 25.2 °C 16.6 °C 1017.2 hPa NNE 0.2 km/h 1.9 km/h 59 % 0 mm
15:34 25.3 °C 18.4 °C 1017.2 hPa Calm     66 % 0 mm
15:39 25.4 °C 17.8 °C 1017.2 hPa SSE 1.3 km/h 5.6 km/h 63 % 0 mm
15:44 25.4 °C 16 °C 1017.2 hPa SE 3.5 km/h 7.4 km/h 56 % 0 mm
15:49 25.6 °C 15.6 °C 1017.2 hPa SE 1.9 km/h 7.4 km/h 54 % 0 mm
15:54 25.7 °C 16.8 °C 1016.8 hPa SE 0.5 km/h 7.4 km/h 58 % 0 mm
15:59 25.9 °C 16.7 °C 1016.8 hPa SE 2.7 km/h 5.6 km/h 57 % 0 mm
16:04 26 °C 16.6 °C 1016.8 hPa SE 0.8 km/h 3.7 km/h 56 % 0 mm
16:09 26.2 °C 16.7 °C 1016.8 hPa SE 4.3 km/h 5.6 km/h 56 % 0 mm
16:14 26.3 °C 17.1 °C 1016.5 hPa SSE 2.4 km/h 6.4 km/h 57 % 0 mm
16:19 26.3 °C 17.1 °C 1016.5 hPa SE 0.2 km/h 1.9 km/h 57 % 0 mm
16:24 26.4 °C 16.4 °C 1016.5 hPa SE 2.7 km/h 7.4 km/h 54 % 0 mm
16:29 26.4 °C 15.2 °C 1016.5 hPa SE 1.3 km/h 5.6 km/h 50 % 0 mm
16:34 26.4 °C 16.7 °C 1016.5 hPa SE 0.3 km/h 1.9 km/h 55 % 0 mm
16:39 26.4 °C 16.1 °C 1016.5 hPa Calm   1.9 km/h 53 % 0 mm
16:44 26.4 °C 16.4 °C 1016.1 hPa SE 1.3 km/h 3.2 km/h 54 % 0 mm
16:49 26.4 °C 15.1 °C 1016.1 hPa Calm   5.6 km/h 50 % 0 mm
16:54 26.3 °C 15.7 °C 1016.1 hPa SE 0.5 km/h 1.9 km/h 52 % 0 mm
16:59 26.3 °C 15.9 °C 1015.8 hPa SE 1.3 km/h 3.7 km/h 53 % 0 mm
17:04 26.3 °C 15.6 °C 1015.8 hPa SSE 1.1 km/h 5.6 km/h 52 % 0 mm
17:09 26.2 °C 15 °C 1015.8 hPa SE 5.1 km/h 9.3 km/h 50 % 0 mm
17:15 26.2 °C 14.7 °C 1015.8 hPa SE 2.4 km/h 4.8 km/h 49 % 0 mm
17:20 26.1 °C 13.9 °C 1015.8 hPa SE 3.1 km/h 7.4 km/h 47 % 0 mm
17:25 26.1 °C 14.8 °C 1015.8 hPa Calm   1.9 km/h 50 % 0 mm
17:30 26 °C 14.4 °C 1015.5 hPa Calm   1.9 km/h 49 % 0 mm
17:35 26 °C 15.7 °C 1015.5 hPa SSE 2.1 km/h 5.6 km/h 53 % 0 mm
17:40 25.9 °C 15.3 °C 1015.5 hPa SSE 1.9 km/h 5.6 km/h 52 % 0 mm
17:45 25.9 °C 14.7 °C 1015.5 hPa SE 1.4 km/h 5.6 km/h 50 % 0 mm
17:50 25.8 °C 13.7 °C 1015.5 hPa SE 3.7 km/h 9.3 km/h 47 % 0 mm
17:55 25.8 °C 14 °C 1015.1 hPa SSE 2.4 km/h 5.6 km/h 48 % 0 mm
18:00 25.8 °C 14.3 °C 1015.5 hPa SSW 0.6 km/h 3.7 km/h 49 % 0 mm
18:05 25.7 °C 13.9 °C 1015.5 hPa Calm   1.9 km/h 48 % 0 mm
18:11 25.7 °C 13.5 °C 1015.1 hPa SE 2.1 km/h 5.6 km/h 47 % 0 mm
18:16 25.6 °C 14.4 °C 1015.1 hPa Calm   3.2 km/h 50 % 0 mm
18:21 25.4 °C 13.6 °C 1015.5 hPa Calm   4.8 km/h 48 % 0 mm
18:26 25.3 °C 13.8 °C 1015.5 hPa East 1.6 km/h 3.2 km/h 49 % 0 mm
18:31 25.3 °C 14.4 °C 1015.1 hPa Calm   8 km/h 51 % 0 mm
18:36 25.2 °C 13.4 °C 1015.5 hPa SE 1.6 km/h 8 km/h 48 % 0 mm
18:41 25.2 °C 13.7 °C 1015.5 hPa Calm   8 km/h 49 % 0 mm
18:46 25.1 °C 12.9 °C 1015.5 hPa SSE 1.6 km/h 9.7 km/h 47 % 0 mm
18:51 24.9 °C 13.1 °C 1015.5 hPa SE 3.2 km/h 5.6 km/h 48 % 0 mm
18:56 24.8 °C 13.7 °C 1015.5 hPa Calm   4.8 km/h 50 % 0 mm
19:01 24.7 °C 13.2 °C 1015.5 hPa SE 2.3 km/h 9.3 km/h 49 % 0 mm
19:06 24.6 °C 13.8 °C 1015.5 hPa SE 1.6 km/h 9.7 km/h 51 % 0 mm
19:11 24.5 °C 14 °C 1015.5 hPa SE 0.6 km/h 5.6 km/h 52 % 0 mm
19:16 24.4 °C 13.9 °C 1015.1 hPa SE 0.2 km/h 1.9 km/h 52 % 0 mm
19:21 24.3 °C 14.4 °C 1015.5 hPa Calm     54 % 0 mm
19:26 24.2 °C 14.1 °C 1015.1 hPa Calm     53 % 0 mm
19:31 24.1 °C 14.2 °C 1015.1 hPa SE 0.6 km/h 3.7 km/h 54 % 0 mm
19:36 23.9 °C 14.3 °C 1015.1 hPa Calm   1.9 km/h 55 % 0 mm
19:41 23.8 °C 14.5 °C 1015.1 hPa Calm     56 % 0 mm
19:50 23.6 °C 14.6 °C 1015.1 hPa Calm   3.7 km/h 57 % 0 mm
19:55 23.4 °C 14.7 °C 1015.1 hPa Calm   1.9 km/h 58 % 0 mm
20:00 23.3 °C 14.9 °C 1015.1 hPa Calm     59 % 0 mm
20:05 23.2 °C 14.5 °C 1015.1 hPa SE 0.3 km/h 1.9 km/h 58 % 0 mm
20:11 23.1 °C 14.6 °C 1014.8 hPa SSE 1.9 km/h 5.6 km/h 59 % 0 mm
20:14 23 °C 14.6 °C 1015.1 hPa ESE 0.2 km/h   59 % 0 mm
20:19 22.9 °C 14.4 °C 1015.1 hPa ESE 0.2 km/h 1.9 km/h 59 % 0 mm
20:24 22.8 °C 14.6 °C 1014.8 hPa ESE 0.2 km/h 3.7 km/h 60 % 0 mm
20:29 22.7 °C 14.5 °C 1014.8 hPa ESE 1.3 km/h 3.7 km/h 60 % 0 mm
20:34 22.6 °C 14.7 °C 1014.8 hPa ESE 0.8 km/h 1.9 km/h 61 % 0 mm
20:39 22.4 °C 14.6 °C 1014.8 hPa ESE 1.9 km/h 3.7 km/h 61 % 0 mm
20:44 22.4 °C 14.7 °C 1014.8 hPa ESE 0.8 km/h 3.7 km/h 62 % 0 mm
20:49 22.3 °C 14.7 °C 1014.8 hPa Calm   5.6 km/h 62 % 0 mm
20:54 22.2 °C 14.8 °C 1014.8 hPa Calm     63 % 0 mm
20:59 22.2 °C 14.8 °C 1014.8 hPa Calm     63 % 0 mm
21:04 22.1 °C 14.7 °C 1014.8 hPa Calm   3.7 km/h 63 % 0 mm
21:09 22 °C 14.9 °C 1014.8 hPa Calm     64 % 0 mm
21:14 22 °C 15.1 °C 1014.8 hPa Calm     65 % 0 mm
21:19 21.9 °C 15.1 °C 1014.8 hPa Calm     65 % 0 mm
21:24 21.9 °C 15.2 °C 1014.8 hPa Calm   1.9 km/h 66 % 0 mm
21:29 21.9 °C 15.2 °C 1014.8 hPa SE 0.3 km/h 1.9 km/h 66 % 0 mm
21:34 21.8 °C 15.4 °C 1014.8 hPa SE 0.5 km/h 3.7 km/h 67 % 0 mm
21:39 21.8 °C 15.4 °C 1014.8 hPa Calm   1.9 km/h 67 % 0 mm
21:44 21.7 °C 15.6 °C 1014.8 hPa Calm     68 % 0 mm
21:49 21.7 °C 15.6 °C 1014.8 hPa Calm   1.9 km/h 68 % 0 mm
21:54 21.6 °C 15.4 °C 1014.8 hPa North 3.1 km/h 4.8 km/h 68 % 0 mm
21:59 21.6 °C 15.4 °C 1014.8 hPa North 0.5 km/h 1.9 km/h 68 % 0 mm
22:04 21.5 °C 15.3 °C 1014.8 hPa Calm     68 % 0 mm
22:09 21.4 °C 15.3 °C 1014.4 hPa Calm     68 % 0 mm
22:14 21.4 °C 15.4 °C 1014.4 hPa Calm     69 % 0 mm
22:20 21.3 °C 15.4 °C 1014.4 hPa Calm     69 % 0 mm
22:25 21.3 °C 15.6 °C 1014.4 hPa Calm     70 % 0 mm
22:30 21.3 °C 15.8 °C 1014.1 hPa Calm     71 % 0 mm
22:35 21.2 °C 15.6 °C 1014.4 hPa Calm     70 % 0 mm
22:40 21.2 °C 15.9 °C 1014.1 hPa Calm     72 % 0 mm
22:45 21.2 °C 16.4 °C 1014.1 hPa Calm     74 % 0 mm
22:50 21.2 °C 16.6 °C 1014.4 hPa Calm     75 % 0 mm
22:55 21.1 °C 16.7 °C 1014.1 hPa Calm     76 % 0 mm
23:00 21.1 °C 16.7 °C 1014.1 hPa Calm     76 % 0 mm
23:05 21.1 °C 16.7 °C 1014.1 hPa Calm     76 % 0 mm
23:10 21.1 °C 16.7 °C 1013.8 hPa Calm     76 % 0 mm
23:15 21 °C 16.6 °C 1014.1 hPa Calm     76 % 0 mm
23:20 21 °C 16.6 °C 1014.1 hPa Calm     76 % 0 mm
23:26 20.9 °C 16.6 °C 1014.1 hPa Calm     76 % 0 mm
23:31 20.9 °C 16.5 °C 1014.1 hPa Calm     76 % 0 mm
23:36 20.9 °C 16.3 °C 1014.1 hPa Calm     75 % 0 mm
23:41 20.8 °C 16.4 °C 1014.1 hPa Calm     76 % 0 mm
23:46 20.8 °C 16.4 °C 1013.8 hPa Calm     76 % 0 mm
23:51 20.8 °C 16.4 °C 1013.8 hPa Calm     76 % 0 mm
23:56 20.8 °C 16.7 °C 1013.8 hPa Calm     77 % 0 mm
Crab Meadow Weather
Compliments of Weather Underground - 3 mb

Script developed by  Jim McMurry - jmcmurry@mwt.net Adapted for the template by  Wim van der Kuil - Leuven-Template.eu

Recycling: The average American uses seven trees a year in paper, wood, and other products made from trees. This amounts to about 2,000,000,000 trees per year!